Location: Igon
(43.1667°N, 0.2333°W)
Time: 14:29:06
(UTC+00:00)

USA 81 - Pass Details

Date: 29 November 2020
Orbit: 783 x 791 km, 85.0° (Epoch: 30 November)

Event Time Altitude Azimuth Distance (km) Brightness Sun altitude
Rises 06:15:48 0° 178° (S) 3,256 7.6 -10.0°
Reaches altitude 10° 06:18:09 10° 176° (S) 2,332 6.8 -9.6°
Maximum altitude 06:23:22 74° 92° (E) 817 4.3 -8.7°
Drops below altitude 10° 06:28:37 10° 8° (N) 2,349 6.4 -7.8°
Sets 06:30:59 0° 7° (N) 3,283 7.1 -7.4°
